Regional Weather Roundup
Issued by NWS

Home | Current Version | Previous Version | Graphics & Text | Print | Product List | Glossary On
Versions: 1 2 3 4 5 6 7 8 9 10 11 12 13 14 15 16 17 18 19 20 21 22 23 24 25 26 27 28 29 30 31 32 33 34 35 36 37 38 39 40 41 42 43 44 45 46 47 48 49 50
000
ASUS43 KIND 222359
RWRIN

WEATHER ROUNDUP FOR INDIANA
NATIONAL WEATHER SERVICE INDIANAPOLIS IN
800 PM EDT TUE JUL 22 2014

NOTE: "FAIR" INDICATES FEW OR NO CLOUDS BELOW 12,000 FEET WITH NO
SIGNIFICANT WEATHER AND/OR OBSTRUCTIONS TO VISIBILITY.

* - STATION DOES NOT REPORT WEATHER SUCH AS PRECIPITATION OR FOG.

+ - STATION NOT QUALITY CONTROLLED BY THE NATIONAL WEATHER SERVICE.
    USE DATA WITH CAUTION...ESPECIALLY DEWPOINT AND RELATIVE
    HUMIDITY OBSERVATIONS.

INZ001>003-010>013-019-020-230100-
NORTHWEST INDIANA

CITY           SKY/WX    TMP DP  RH WIND       PRES   REMARKS
GARY /AIRPORT/ MOSUNNY   86  72  62 S10       29.96S
VALPARAISO     MOSUNNY   83  71  67 SW13      30.00R
6HR MIN TEMP:  83; 6HR MAX TEMP:  87;


$$

LMZ046-743>745-230100-
SOUTHERN LAKE MICHIGAN

STATION/POSITION TIME  TEMP WIND        PRES
                       AIR  DIR/SP/G
                 (UTC) (F)  (DEG/KT/KT) (MB)
BURNS HARBOR     2300   84  220/ 13/ 21 1015.2S
MICHIGAN CITY    2300   84  180/ 13/ 17   N/A

$$

INZ004-005-014>016-021>024-230100-
NORTH CENTRAL INDIANA

CITY           SKY/WX    TMP DP  RH WIND       PRES   REMARKS
ELKHART        MOSUNNY   84  66  54 SW12      29.99S
GOSHEN         CLOUDY    85  69  58 SW13      29.99R
6HR MIN TEMP:  85; 6HR MAX TEMP:  89;

SOUTH BEND     PTSUNNY   84  69  60 SW13      29.99F
6HR MIN TEMP:  84; 6HR MAX TEMP:  89;


$$

INZ006>009-017-018-025>027-230100-
NORTHEAST INDIANA

CITY           SKY/WX    TMP DP  RH WIND       PRES   REMARKS
ANGOLA *+      SUNNY     84  70  61 SW6       29.99R
FORT WAYNE     MOSUNNY   86  65  49 SW13      30.01S
6HR MIN TEMP:  86; 6HR MAX TEMP:  89;


$$

INZ028-029-035-036-043>045-051>053-230100-
WEST CENTRAL INDIANA

CITY           SKY/WX    TMP DP  RH WIND       PRES   REMARKS
GREENCASTLE +  SUNNY     81  72  74 CALM      30.04R
LAFAYETTE      SUNNY     83  70  64 W7        30.03R
6HR MIN TEMP:  83; 6HR MAX TEMP:  86;

TERRE HAUTE    SUNNY     84  69  60 W8        30.04R
6HR MIN TEMP:  84; 6HR MAX TEMP:  88;


$$

INZ030>032-037>040-046>048-054>057-064-065-230100-
CENTRAL INDIANA

CITY           SKY/WX    TMP DP  RH WIND       PRES   REMARKS
COLUMBUS       SUNNY     81  68  65 SW3       30.02F
INDIANAPOLIS   MOSUNNY   83  66  56 SW12      30.02S
6HR MIN TEMP:  83; 6HR MAX TEMP:  88;

-EAGLE CREEK   SUNNY     83  66  56 SW6       30.03R
6HR MIN TEMP:  83; 6HR MAX TEMP:  87;

KOKOMO *+      MOSUNNY   84  68  58 W15       30.03R
MT COMFORT *+  SUNNY     82  68  61 W6        30.04R
SHELBYVILLE    SUNNY     84  69  60 SW6       30.02F
6HR MIN TEMP:  84; 6HR MAX TEMP:  90;


$$

INZ033-034-041-042-049-050-058-059-230100-
EAST CENTRAL INDIANA

CITY           SKY/WX    TMP DP  RH WIND       PRES   REMARKS
MUNCIE         SUNNY     85  65  51 SW7       30.02S
6HR MIN TEMP:  84; 6HR MAX TEMP:  88;


$$

INZ060-061-067>069-081>083-085>088-230100-
SOUTHWEST INDIANA

CITY           SKY/WX    TMP DP  RH WIND       PRES   REMARKS
EVANSVILLE     SUNNY     89  67  47 SW7       30.02S
6HR MIN TEMP:  89; 6HR MAX TEMP:  92;

HUNTINGBURG *+ SUNNY     88  70  55 W6        30.03S
6HR MIN TEMP:  88; 6HR MAX TEMP:  91;


$$

INZ062-063-066-070>080-084-089>092-230100-
SOUTH CENTRAL AND SOUTHEAST INDIANA

CITY           SKY/WX    TMP DP  RH WIND       PRES   REMARKS
BLOOMINGTON    SUNNY     83  71  67 W3        30.03S
6HR MIN TEMP:  83; 6HR MAX TEMP:  88;


$$



USA.gov is the U.S. government's official web portal to all federal, state and local government web resources and services.